Regional Weather Roundup
Issued by NWS

Home | Current Version | Previous Version | Text Only | Print | Product List | Glossary On
Versions: 1 2 3 4 5 6 7 8 9 10 11 12 13 14 15 16 17 18 19 20 21 22 23 24 25 26 27 28 29 30 31 32 33 34 35 36 37 38 39 40 41 42 43 44 45 46 47 48 49 50
000
ASUS44 KFWD 250610
RWRTX
NORTH TEXAS HOURLY WEATHER ROUNDUP
NATIONAL WEATHER SERVICE FORT WORTH TX
100 AM CDT TUE APR 25 2017

NOTE: "FAIR" INDICATES FEW OR NO CLOUDS BELOW 12,000 FEET WITH NO
SIGNIFICANT WEATHER AND/OR OBSTRUCTIONS TO VISIBILITY.

TXZ118-119-250700-
DALLAS/FORT WORTH METROPLEX

CITY           SKY/WX    TMP DP  RH WIND       PRES   REMARKS
DFW AIRPORT    PTCLDY    69  52  54 S18       29.59F
6HR MIN TEMP:  68; 6HR MAX TEMP:  76;

DALLAS LOVE    PTCLDY    67  51  56 S15       29.63F
6HR MIN TEMP:  67; 6HR MAX TEMP:  76;

FTW MEACHAM    CLOUDY    69  52  54 S17G25    29.60F
6HR MIN TEMP:  67; 6HR MAX TEMP:  76;

DAL-EXECUTIVE  CLEAR     64  52  64 S9        29.63F
6HR MIN TEMP:  64; 6HR MAX TEMP:  74;

FTW-ALLIANCE   PTCLDY    66  52  60 S13       29.58F
6HR MIN TEMP:  65; 6HR MAX TEMP:  75;

FTW-NAS-JRB    CLOUDY    69  52  54 S15       29.61F
6HR MIN TEMP:  69; 6HR MAX TEMP:  76;

FTW-SPINKS     CLEAR     66  51  57 S13G24    29.63F
6HR MIN TEMP:  66; 6HR MAX TEMP:  74;

ARLINGTON      CLEAR     64  52  64 S12       29.63F
6HR MIN TEMP:  64; 6HR MAX TEMP:  74;

GRAND PRAIRIE  CLEAR     66  51  56 S9        29.65S
6HR MIN TEMP:  66; 6HR MAX TEMP:  74;

ADDISON        CLEAR     67  50  54 S14G22    29.64F
6HR MIN TEMP:  67; 6HR MAX TEMP:  75;

MESQUITE       CLEAR     61  51  69 S9        29.65F
6HR MIN TEMP:  60; 6HR MAX TEMP:  73;

LANCASTER      CLEAR     62  51  68 S8        29.66F
6HR MIN TEMP:  58; 6HR MAX TEMP:  74;

$$

TXZ091>094-102>105-117-120-121-131>134-250700-
NORTH CENTRAL TEXAS

CITY           SKY/WX    TMP DP  RH WIND       PRES   REMARKS
SHRMAN/DENISON CLOUDY    64  51  61 S14G20    29.61F
GAINESVILLE    CLEAR     63  51  63 S10       29.60F
6HR MIN TEMP:  63; 6HR MAX TEMP:  73;

BOWIE          CLEAR     66  53  62 S16       29.55F
6HR MIN TEMP:  66; 6HR MAX TEMP:  75;

BRIDGEPORT     PTCLDY    68  50  53 S14G22    29.58F
6HR MIN TEMP:  65; 6HR MAX TEMP:  75;

DECATUR        PTCLDY    67  51  56 S17G25    29.58F
6HR MIN TEMP:  67; 6HR MAX TEMP:  74;

DENTON         CLOUDY    67  52  58 S18G24    29.59F
6HR MIN TEMP:  65; 6HR MAX TEMP:  74;

MCKINNEY       CLOUDY    64  52  64 S16       29.62F
6HR MIN TEMP:  61; 6HR MAX TEMP:  73;

BONHAM         CLEAR     61  50  67 SE12      29.63F
GREENVILLE     PTCLDY    66  52  59 S10       29.66F
ROCKWALL       CLOUDY    65  51  60 S12G17    29.65F
6HR MIN TEMP:  64; 6HR MAX TEMP:  74;

TERRELL        CLOUDY    63  50  62 S9        29.66F
6HR MIN TEMP:  61; 6HR MAX TEMP:  74;

WAXAHACHIE     CLEAR     61  53  74 S8        29.66F
6HR MIN TEMP:  61; 6HR MAX TEMP:  73;

CLEBURNE       CLEAR     64  55  72 S12       29.65F
GRANBURY       PTCLDY    67  53  60 E9        29.61F
6HR MIN TEMP:  67; 6HR MAX TEMP:  78;

$$

TXZ083>090-098>101-113>116-127>130-139>142-154-155-250700-
WESTERN NORTH TEXAS

CITY           SKY/WX    TMP DP  RH WIND       PRES   REMARKS
WICHITA FALLS  CLEAR     68  51  54 S20       29.51S
6HR MIN TEMP:  65; 6HR MAX TEMP:  78;

WF-KICKAPOO    PTCLDY    67  52  57 S10G18    29.53S
6HR MIN TEMP:  67; 6HR MAX TEMP:  79;

VERNON         CLOUDY    70  48  45 S15       29.49F
6HR MIN TEMP:  44; 6HR MAX TEMP:  86;

ABILENE        CLOUDY    69  52  54 S20G28    29.57F
6HR MIN TEMP:  68; 6HR MAX TEMP:  81;

GRAHAM         CLEAR     69  53  55 S10       29.54F
6HR MIN TEMP:  69; 6HR MAX TEMP:  79;

BRECKENRIDGE   CLOUDY    71  51  48 S16G24    29.55F
6HR MIN TEMP:  71; 6HR MAX TEMP:  81;

CISCO          CLEAR     68  52  56 S16G25    29.59F
RANGER         CLEAR     66  52  61 S14G22    29.59F
6HR MIN TEMP:  66; 6HR MAX TEMP:  78;

MINERAL WELLS  PTCLDY    64  51  62 SE12      29.57F
6HR MIN TEMP:  64; 6HR MAX TEMP:  77;

STEPHENVILLE   CLOUDY    65  51  61 S10       29.64F
6HR MIN TEMP:  65; 6HR MAX TEMP:  76;

COMANCHE       CLEAR     68  53  58 S10G21    29.61F
6HR MIN TEMP:  68; 6HR MAX TEMP:  78;

BROWNWOOD      PTCLDY    64  52  63 S7        29.62F
COLEMAN        CLEAR     66  51  57 S6        29.62F
6HR MIN TEMP:  66; 6HR MAX TEMP:  81;

$$

TXZ143>147-156>162-174-175-250700-
CENTRAL TEXAS

CITY           SKY/WX    TMP DP  RH WIND       PRES   REMARKS
WACO           CLEAR     65  55  70 S20G28    29.66F
6HR MIN TEMP:  65; 6HR MAX TEMP:  75;

WACO-MCGREGOR  CLEAR     65  54  67 S13G21    29.66F
6HR MIN TEMP:  65; 6HR MAX TEMP:  75;

HILLSBORO      CLEAR     64  54  68 S13       29.65F
6HR MIN TEMP:  64; 6HR MAX TEMP:  73;

CORSICANA      CLEAR     65  52  62 S13       29.68F
6HR MIN TEMP:  64; 6HR MAX TEMP:  74;

MEXIA          CLEAR     63  52  68 S14G20    29.68F
6HR MIN TEMP:  62; 6HR MAX TEMP:  73;

HEARNE         CLEAR     63  55  76 SE8       29.72F
6HR MIN TEMP:  63; 6HR MAX TEMP:  75;

CAMERON        PTCLDY    65  54  68 S12       29.71S
6HR MIN TEMP:  65; 6HR MAX TEMP:  76;

TEMPLE         CLEAR     64  55  72 S18G25    29.68F
6HR MIN TEMP:  64; 6HR MAX TEMP:  75;

KILLEEN        CLEAR     65  54  68 S12       29.65F
6HR MIN TEMP:  64; 6HR MAX TEMP:  76;

KILLEEN-SKYLRK CLEAR     65  55  70 SE12      29.68F
6HR MIN TEMP:  65; 6HR MAX TEMP:  76;

FORT HOOD      CLEAR     64  54  70 S10       29.64F
6HR MIN TEMP:  64; 6HR MAX TEMP:  76;

GATESVILLE     CLEAR     63  54  72 CALM      29.67F
HAMILTON       CLEAR     64  51  62 S7        29.65F
6HR MIN TEMP:  64; 6HR MAX TEMP:  76;

LAMPASAS       CLEAR     68  56  64 S10G16    29.65F
6HR MIN TEMP:  65; 6HR MAX TEMP:  76;

$$

TXZ095>097-106>112-122>126-135>138-148>153-164>167-250700-
EAST TEXAS

CITY           SKY/WX    TMP DP  RH WIND       PRES   REMARKS
PARIS          CLOUDY    61  48  63 SE9       29.67F
6HR MIN TEMP:  61; 6HR MAX TEMP:  73;

SULPHUR SPRNGS CLEAR     63  51  66 S8        29.69F
6HR MIN TEMP:  62; 6HR MAX TEMP:  72;

MOUNT PLEASANT CLEAR     57  51  79 CALM      29.70F
6HR MIN TEMP:  57; 6HR MAX TEMP:  72;

GILMER         CLEAR     62  51  67 SE3       29.70S
6HR MIN TEMP:  61; 6HR MAX TEMP:  75;

MINEOLA        CLEAR     57  50  77 SE3       29.69S
TYLER          CLEAR     62  51  67 S10       29.69S
6HR MIN TEMP:  62; 6HR MAX TEMP:  74;

LONGVIEW       CLEAR     60  53  77 S7        29.70F
6HR MIN TEMP:  60; 6HR MAX TEMP:  75;

MARSHALL       CLEAR     53  49  84 CALM      29.73F
6HR MIN TEMP:  53; 6HR MAX TEMP:  73;

ATHENS         CLEAR     61  48  63 S8        29.68F
PALESTINE      PTCLDY    63  55  75 S7        29.73R
JACKSONVILLE   CLEAR     62  55  80 S12       29.73F
HENDERSON      PTCLDY    59  51  76 S3        29.72F
6HR MIN TEMP:  57; 6HR MAX TEMP:  74;

CENTER         CLEAR     61  55  82 SE7       29.75S
6HR MIN TEMP:  58; 6HR MAX TEMP:  75;

NACOGDOCHES    CLEAR     61  54  77 S9        29.72S
6HR MIN TEMP:  57; 6HR MAX TEMP:  73;

LUFKIN         CLEAR     60  54  80 S6        29.75S
6HR MIN TEMP:  59; 6HR MAX TEMP:  75;

$$

SUPPLEMENTAL OBSERVATIONS (CENTRAL)

CITY           SKY/WX    TMP DP  RH WIND       PRES   REMARKS
CADDO GRASSLND   N/A     63  50  63 S8          N/A
PAT MAYSE LAKE   N/A     63  48  59 SE13        N/A
G



USA.gov is the U.S. government's official web portal to all federal, state and local government web resources and services.